CW1129 Weather Reports


time (UTC)temp
C
wind
direction
speed
KPH
gust
KPH
rain 1hr
cm
rain 24hr
cm
rain mn
cm
humidity
%
barometer
mb
20260507192746 17 293 3.2 8.0 0.00 0.30 0.08 22 1001.5
20260507191746 17 248 4.8 11.3 0.00 0.33 0.08 21 1001.5
20260507190806 17 23 3.2 17.7 0.00 0.36 0.08 21 1001.4
20260507185746 17 0.0 4.8 0.00 0.36 0.08 21 1001.6
20260507184746 17 248 3.2 11.3 0.00 0.38 0.08 20 1001.6
20260507183746 17 293 4.8 11.3 0.00 0.38 0.08 20 1001.8
20260507182746 17 315 4.8 9.7 0.00 0.38 0.08 19 1002.0
20260507181746 17 315 3.2 6.4 0.00 0.38 0.08 20 1002.0
20260507180746 17 293 1.6 6.4 0.00 0.38 0.08 20 1002.0
20260507175745 17 225 1.6 8.0 0.00 0.38 0.08 22 1001.9
20260507174746 17 248 3.2 8.0 0.00 0.38 0.08 20 1001.9
20260507173806 16 315 3.2 11.3 0.00 0.38 0.08 21 1001.9
20260507172746 16 293 3.2 8.0 0.00 0.38 0.08 20 1002.0
20260507171745 16 293 3.2 11.3 0.00 0.38 0.08 22 1002.0
20260507170806 16 270 3.2 8.0 0.00 0.38 0.08 24 1002.1
20260507165746 16 315 3.2 9.7 0.00 0.38 0.08 26 1002.4
20260507164747 16 293 3.2 12.9 0.00 0.38 0.08 26 1002.4
20260507163747 15 293 4.8 11.3 0.00 0.38 0.08 26 1002.6
20260507162747 15 270 6.4 11.3 0.00 0.38 0.08 27 1002.7
20260507161747 15 270 3.2 9.7 0.00 0.38 0.08 29 1002.7
20260507160747 15 293 3.2 11.3 0.00 0.38 0.08 34 1002.8
20260507155807 15 315 3.2 9.7 0.00 0.38 0.08 37 1002.8
20260507153747 15 315 3.2 9.7 0.00 0.38 0.08 39 1002.8
20260507152747 15 248 4.8 9.7 0.00 0.38 0.08 43 1003.0
20260507151747 14 293 3.2 8.0 0.00 0.38 0.08 45 1003.0
20260507150747 14 270 3.2 8.0 0.00 0.38 0.08 44 1003.2
20260507145747 14 270 1.6 4.8 0.00 0.38 0.08 49 1003.3
20260507144747 13 270 3.2 4.8 0.00 0.38 0.08 48 1003.3
20260507143747 13 270 1.6 4.8 0.00 0.38 0.08 52 1003.3
20260507142747 13 315 1.6 4.8 0.00 0.38 0.08 49 1003.3
20260507141807 13 0.0 4.8 0.00 0.38 0.08 52 1003.3
20260507140747 13 315 1.6 3.2 0.00 0.38 0.08 50 1003.3
20260507135747 13 315 1.6 6.4 0.00 0.38 0.08 49 1003.2
20260507134747 13 0 4.8 12.9 0.00 0.38 0.08 50 1003.2
20260507133747 12 315 1.6 4.8 0.00 0.38 0.08 55 1003.3
20260507132747 12 315 1.6 4.8 0.00 0.38 0.08 57 1003.6
20260507131807 12 315 1.6 4.8 0.00 0.38 0.08 59 1003.6
20260507130747 11 293 1.6 3.2 0.00 0.38 0.08 61 1003.6
20260507125747 11 0.0 1.6 0.00 0.38 0.08 63 1003.7
20260507124752 11 0.0 3.2 0.00 0.38 0.08 65 1003.7
20260507123747 10 338 1.6 8.0 0.00 0.38 0.08 68 1003.7
20260507122747 10 0 1.6 11.3 0.00 0.38 0.08 70 1003.9
20260507121747 9 0.0 0.0 0.00 0.38 0.08 73 1003.8
20260507120747 9 0.0 3.2 0.00 0.38 0.08 74 1003.9
20260507115746 9 0.0 3.2 0.00 0.38 0.08 76 1003.7
20260507114746 9 0.0 1.6 0.00 0.38 0.08 78 1003.7
20260507113746 8 0.0 0.0 0.00 0.38 0.08 80 1003.7
20260507112746 8 0.0 0.0 0.00 0.38 0.08 82 1003.5
20260507111746 8 0.0 0.0 0.00 0.38 0.08 83 1003.5
20260507110746 8 0.0 0.0 0.00 0.38 0.08 84 1003.5
20260507105746 8 0.0 0.0 0.00 0.38 0.08 84 1003.5
20260507104746 8 0.0 0.0 0.00 0.38 0.08 83 1003.5
20260507103746 8 0.0 0.0 0.00 0.38 0.08 82 1002.9
20260507102746 8 0.0 0.0 0.00 0.38 0.08 82 1002.9
20260507101746 8 0.0 0.0 0.00 0.38 0.08 81 1002.9
20260507100806 8 0.0 1.6 0.00 0.38 0.08 81 1002.9
20260507095746 8 270 1.6 8.0 0.00 0.38 0.08 82 1002.5
20260507094746 8 0.0 3.2 0.00 0.38 0.08 83 1002.5
20260507093746 8 0.0 0.0 0.00 0.38 0.08 84 1002.8
20260507092746 8 0.0 0.0 0.00 0.38 0.08 83 1002.9
20260507091746 8 0.0 0.0 0.00 0.38 0.08 83 1002.9
20260507090746 8 0.0 0.0 0.00 0.38 0.08 83 1003.4
20260507085746 8 0.0 1.6 0.00 0.38 0.08 83 1003.2
20260507084746 8 0.0 1.6 0.00 0.38 0.08 84 1003.2
20260507083746 8 0.0 1.6 0.03 0.38 0.08 85 1003.0
20260507082746 8 0.0 0.0 0.03 0.38 0.08 86 1002.7
20260507081746 9 0.0 0.0 0.03 0.38 0.08 86 1002.7
20260507080746 9 0.0 0.0 0.03 0.38 0.08 86 1002.7
20260507075806 9 0.0 0.0 0.03 0.38 0.08 85 1003.0
20260507074745 9 0.0 3.2 0.03 0.38 0.08 83 1003.0
20260507073745 10 293 1.6 4.8 0.00 0.36 0.05 84 1003.0
20260507072745 10 0.0 3.2 0.00 0.36 0.05 86 1002.2
20260507071745 10 0.0 3.2 0.00 0.36 0.05 87 1002.2
20260507070746 10 0.0 1.6 0.00 0.36 0.05 88 1002.1
20260507065806 10 0.0 1.6 0.00 0.36 0.05 88 1001.9
20260507064745 10 0.0 0.0 0.00 0.36 0.05 89 1001.9
20260507063745 10 0.0 0.0 0.00 0.36 0.05 89 1002.1
20260507062745 11 0.0 0.0 0.00 0.36 0.05 89 1002.2
20260507061745 11 0.0 0.0 0.00 0.36 0.05 90 1002.2
20260507060745 11 0.0 4.8 0.00 0.36 0.05 90 1002.2
20260507055747 11 0.0 0.0 0.00 0.36 0.05 90 1002.3
20260507054747 11 0.0 0.0 0.00 0.36 0.05 90 1002.3
20260507053747 11 0.0 0.0 0.00 0.36 0.05 90 1002.5
20260507052747 11 0.0 0.0 0.00 0.36 0.05 90 1002.5
20260507051747 12 0.0 0.0 0.00 0.36 0.05 90 1002.5
20260507050747 12 0.0 0.0 0.00 0.36 0.05 89 1002.4
20260507045747 12 0.0 1.6 0.05 0.36 0.05 89 1002.5
20260507044747 12 0.0 0.0 0.05 0.36 0.05 89 1002.5
20260507043807 12 0.0 0.0 0.05 0.36 0.05 89 1002.2
20260507042747 12 0.0 0.0 0.05 0.36 0.05 89 1002.3
20260507041747 12 0.0 0.0 0.05 0.36 0.05 88 1002.3
20260507040747 13 0.0 3.2 0.05 0.36 0.05 88 1002.5
20260507035746 13 203 1.6 3.2 0.00 0.30 0.30 89 1002.2
20260507034806 14 0.0 3.2 0.00 0.30 0.30 90 1002.2
20260507033747 14 0.0 0.0 0.00 0.30 0.30 90 1001.9
20260507032747 14 0.0 3.2 0.00 0.30 0.30 90 1001.5
20260507031746 14 0.0 0.0 0.00 0.30 0.30 90 1001.5
20260507030746 14 180 1.6 3.2 0.00 0.30 0.30 90 1001.3
20260507025746 15 180 1.6 3.2 0.00 0.30 0.30 91 1001.4
20260507024746 14 203 1.6 6.4 0.00 0.30 0.30 91 1001.4
20260507023746 14 0.0 0.0 0.00 0.30 0.30 90 1001.3
20260507022806 14 203 1.6 4.8 0.00 0.30 0.30 90 1001.2
20260507021746 14 0.0 4.8 0.00 0.30 0.30 90 1001.2
20260507020746 14 0.0 1.6 0.00 0.30 0.30 90 1001.1
20260507015746 14 0.0 4.8 0.00 0.30 0.30 90 1001.1
20260507014746 14 0.0 3.2 0.00 0.30 0.30 90 1001.1
20260507013746 14 0.0 4.8 0.00 0.30 0.30 90 1001.1
20260507012746 14 225 1.6 3.2 0.00 0.30 0.30 90 1001.1
20260507011806 14 225 1.6 9.7 0.00 0.30 0.30 90 1001.1
20260507010746 14 203 1.6 6.4 0.00 0.30 0.30 90 1001.2
20260507005746 14 203 1.6 6.4 0.00 0.30 0.30 90 1001.2
20260507004746 14 203 1.6 4.8 0.00 0.30 0.30 90 1001.2
20260507003746 14 225 1.6 4.8 0.00 0.30 0.30 90 1001.2
20260507002746 14 203 1.6 4.8 0.00 0.30 0.30 90 1001.0
20260507001746 14 203 1.6 4.8 0.03 0.30 0.30 90 1001.0
20260507000746 14 203 1.6 8.0 0.03 0.30 0.30 90 1001.0
20260506235806 14 0.0 3.2 0.08 0.30 0.30 90 1000.9
20260506234746 14 203 1.6 8.0 0.10 0.30 0.30 90 1000.9
20260506233746 14 225 1.6 4.8 0.13 0.30 0.30 89 1000.9
20260506232745 15 0.0 4.8 0.13 0.30 0.30 89 1000.8
20260506231745 15 0.0 4.8 0.13 0.28 0.28 89 1000.7
20260506230806 15 225 1.6 4.8 0.13 0.28 0.28 89 1000.9
20260506225746 15 203 1.6 3.2 0.08 0.23 0.23 89 1001.0
20260506224746 15 158 1.6 4.8 0.05 0.20 0.20 88 1001.0
20260506223745 15 293 1.6 11.3 0.03 0.18 0.18 88 1001.0
20260506222745 15 0.0 1.6 0.03 0.18 0.18 88 1001.2
20260506221745 15 203 1.6 4.8 0.00 0.15 0.15 87 1001.2
20260506220746 15 248 1.6 9.7 0.00 0.15 0.15 87 1001.3
20260506215745 15 270 1.6 8.0 0.00 0.15 0.15 87 1001.4
20260506214745 15 180 1.6 8.0 0.03 0.15 0.15 87 1001.4
20260506213745 15 158 1.6 4.8 0.03 0.15 0.15 86 1001.5
20260506212745 15 158 1.6 9.7 0.03 0.15 0.15 86 1001.7
20260506211745 15 203 1.6 12.9 0.05 0.15 0.15 86 1001.7
20260506210745 15 225 1.6 4.8 0.05 0.15 0.15 86 1001.9
20260506205745 15 225 1.6 8.0 0.08 0.15 0.15 86 1002.0
20260506204745 15 180 1.6 6.4 0.05 0.13 0.13 85 1002.0
20260506203745 15 180 1.6 9.7 0.05 0.13 0.13 84 1002.0
20260506202747 15 248 3.2 8.0 0.05 0.13 0.13 84 1002.0
20260506201747 15 180 3.2 8.0 0.05 0.10 0.10 83 1002.0
20260506200747 16 203 3.2 9.7 0.08 0.10 0.10 82 1002.1
20260506195747 16 225 1.6 8.0 0.05 0.08 0.08 82 1002.1
20260506194747 16 180 1.6 3.2 0.08 0.08 0.08 82 1002.1
20260506193747 16 0.0 3.2 0.08 0.08 0.08 81 1002.0